sat.trackr.live / text

‹ back to catalog

HULIANWANG DIGUI-70

NORAD 65230 · 2025-178C

PAYLOAD ACTIVE UNKNOWN

§ Identity

Operator
Country
PRC
Launch date
2025-08-17
Launch site
TAISC
Launch vehicle
Mass (kg)
RCS (m²)

External: N2YO · Heavens-Above · Gunter

§ Orbital elements

Epoch: 2026-05-25T03:34:11.364096Z

Period
108.73 min
Inclination
86.4961°
Eccentricity
0.0001656
Mean motion
13.24412561 rev/d
Perigee alt
1,166.7 km
Apogee alt
1,169.2 km
Semi-major
7,546.0 km
B*
1.2458e-4
RAAN
21.1727°
Arg perigee
88.4274°
Mean anomaly
271.7049°
Rev number
3,726

§ Raw data

HULIANWANG DIGUI-701 65230U 25178C   26145.14874264  .00000068  00000+0  12458-3 0  99992 65230  86.4961  21.1727 0001656  88.4274 271.7049 13.24412561 37260

JSON: /api/v1/satellites/65230 · /tle

For live sub-satellite position, see the globe view (requires WebGL).

§ Visibility from observer

Set your observer location to see the next 7 days of passes ≥ 10°. The values pass through the URL so the page stays shareable.

No JS? Fill the form by hand. The geolocation button needs JavaScript.